| time (UTC) | temp F | wind direction | speed knots | gust knots | rain 1hr in | rain 24hr in | rain mn in | humidity % | barometer mb |
| 20260507054626 | 56 | 346 | 0.0 | 2.6 | 0.00 | 0.01 | 0.00 | 90 | 1010.7 |
| 20260507053120 | 56 | 350 | 1.7 | 5.2 | 0.00 | 0.01 | 0.00 | 89 | 1010.6 |
| 20260507051600 | 57 | 325 | 4.3 | 11.3 | 0.00 | 0.01 | 0.00 | 88 | 1011.1 |
| 20260507050047 | 59 | 327 | 5.2 | 12.2 | 0.00 | 0.01 | 0.00 | 82 | 1010.8 |
| 20260507044544 | 60 | 341 | 5.2 | 13.9 | 0.00 | 0.01 | 0.00 | 78 | 1010.1 |
| 20260507043039 | 61 | 346 | 5.2 | 12.2 | 0.00 | 0.01 | 0.00 | 81 | 1010.3 |
| 20260507041535 | 62 | 336 | 5.2 | 8.7 | 0.00 | 0.01 | 0.00 | 79 | 1010.0 |
| 20260507040031 | 62 | 330 | 1.7 | 11.3 | 0.00 | 0.01 | 0.00 | 78 | 1009.6 |
| 20260507034630 | 63 | 330 | 6.1 | 9.6 | 0.00 | 0.01 | 0.01 | 81 | 1010.1 |
| 20260507033038 | 64 | 311 | 4.3 | 8.7 | 0.00 | 0.01 | 0.01 | 82 | 1009.6 |
| 20260507031527 | 64 | 332 | 5.2 | 10.4 | 0.00 | 0.01 | 0.01 | 81 | 1009.6 |
| 20260507030028 | 65 | 340 | 2.6 | 7.0 | 0.00 | 0.01 | 0.01 | 83 | 1009.6 |
| 20260507024527 | 66 | 355 | 3.5 | 7.8 | 0.00 | 0.01 | 0.01 | 82 | 1009.0 |
| 20260507023033 | 66 | 319 | 2.6 | 7.0 | 0.00 | 0.01 | 0.01 | 82 | 1009.2 |
| 20260507021525 | 67 | 343 | 3.5 | 8.7 | 0.00 | 0.01 | 0.01 | 82 | 1009.3 |
| 20260507020025 | 67 | 338 | 5.2 | 10.4 | 0.00 | 0.01 | 0.01 | 82 | 1009.0 |
| 20260507014524 | 67 | 319 | 1.7 | 7.0 | 0.00 | 0.01 | 0.01 | 83 | 1009.2 |
| 20260507013024 | 67 | 236 | 0.9 | 3.5 | 0.00 | 0.01 | 0.01 | 82 | 1009.0 |
| 20260507011525 | 67 | 239 | 1.7 | 4.3 | 0.00 | 0.01 | 0.01 | 82 | 1009.1 |
| 20260507010122 | 68 | 250 | 3.5 | 10.4 | 0.00 | 0.01 | 0.01 | 82 | 1008.9 |
| 20260507004532 | 68 | 239 | 4.3 | 8.7 | 0.00 | 0.01 | 0.01 | 82 | 1008.8 |
| 20260507003021 | 68 | 229 | 1.7 | 4.3 | 0.00 | 0.01 | 0.01 | 81 | 1008.7 |
| 20260507001520 | 68 | 255 | 2.6 | 6.1 | 0.00 | 0.01 | 0.01 | 81 | 1008.6 |
| 20260507000019 | 68 | 249 | 2.6 | 7.0 | 0.00 | 0.01 | 0.01 | 80 | 1008.5 |
| 20260506234520 | 68 | 196 | 2.6 | 8.7 | 0.00 | 0.01 | 0.01 | 80 | 1008.3 |
| 20260506233019 | 69 | 234 | 3.5 | 8.7 | 0.00 | 0.01 | 0.01 | 79 | 1008.1 |
| 20260506231517 | 69 | 221 | 0.9 | 6.1 | 0.00 | 0.01 | 0.01 | 78 | 1008.1 |
| 20260506230016 | 69 | 190 | 3.5 | 7.0 | 0.00 | 0.01 | 0.01 | 78 | 1008.0 |
| 20260506224516 | 70 | 186 | 4.3 | 7.0 | 0.00 | 0.01 | 0.01 | 78 | 1008.0 |
| 20260506223017 | 70 | 200 | 3.5 | 7.8 | 0.00 | 0.01 | 0.01 | 76 | 1008.0 |
| 20260506221515 | 70 | 209 | 2.6 | 7.0 | 0.00 | 0.01 | 0.01 | 76 | 1008.0 |
| 20260506220029 | 71 | 229 | 5.2 | 9.6 | 0.00 | 0.01 | 0.01 | 74 | 1007.9 |
| 20260506214513 | 71 | 250 | 3.5 | 8.7 | 0.00 | 0.01 | 0.01 | 74 | 1007.7 |
| 20260506213013 | 71 | 264 | 3.5 | 10.4 | 0.00 | 0.01 | 0.01 | 75 | 1007.8 |
| 20260506211511 | 71 | 214 | 4.3 | 8.7 | 0.00 | 0.01 | 0.01 | 74 | 1007.8 |
| 20260506210013 | 71 | 186 | 2.6 | 7.8 | 0.00 | 0.01 | 0.01 | 74 | 1007.4 |
| 20260506204511 | 71 | 215 | 2.6 | 9.6 | 0.00 | 0.01 | 0.01 | 74 | 1007.6 |
| 20260506203018 | 71 | 200 | 4.3 | 9.6 | 0.00 | 0.01 | 0.01 | 74 | 1007.5 |
| 20260506201509 | 71 | 192 | 4.3 | 11.3 | 0.00 | 0.01 | 0.01 | 74 | 1007.4 |
| 20260506200005 | 71 | 182 | 5.2 | 9.6 | 0.00 | 0.01 | 0.01 | 75 | 1007.5 |
| 20260506194608 | 70 | 290 | 3.5 | 11.3 | 0.00 | 0.01 | 0.01 | 76 | 1007.6 |
| 20260506193102 | 70 | 263 | 1.7 | 12.2 | 0.00 | 0.01 | 0.01 | 76 | 1007.6 |
| 20260506191608 | 69 | 200 | 3.5 | 12.2 | 0.00 | 0.01 | 0.01 | 78 | 1007.9 |
| 20260506190054 | 68 | 221 | 7.0 | 12.2 | 0.00 | 0.01 | 0.01 | 80 | 1008.2 |
| 20260506184552 | 67 | 238 | 4.3 | 13.9 | 0.00 | 0.01 | 0.01 | 82 | 1008.2 |
| 20260506183053 | 66 | 253 | 3.5 | 13.0 | 0.00 | 0.01 | 0.01 | 83 | 1008.3 |
| 20260506181556 | 66 | 263 | 7.0 | 13.0 | 0.00 | 0.01 | 0.01 | 84 | 1008.5 |
| 20260506180105 | 65 | 192 | 3.5 | 13.0 | 0.00 | 0.01 | 0.01 | 86 | 1008.6 |
| 20260506174546 | 64 | 205 | 2.6 | 13.9 | 0.00 | 0.01 | 0.01 | 88 | 1008.6 |
| 20260506173104 | 63 | 240 | 5.2 | 13.0 | 0.00 | 0.01 | 0.01 | 90 | 1008.7 |
| 20260506171546 | 63 | 204 | 5.2 | 10.4 | 0.00 | 0.01 | 0.01 | 91 | 1008.7 |
| 20260506170042 | 62 | 182 | 3.5 | 10.4 | 0.00 | 0.01 | 0.01 | 91 | 1008.9 |
| 20260506164539 | 62 | 217 | 3.5 | 13.0 | 0.00 | 0.01 | 0.01 | 92 | 1008.9 |
| 20260506163039 | 62 | 230 | 5.2 | 12.2 | 0.00 | 0.01 | 0.01 | 92 | 1009.0 |
| 20260506161536 | 61 | 205 | 4.3 | 15.6 | 0.00 | 0.01 | 0.01 | 92 | 1009.2 |
| 20260506160036 | 62 | 221 | 2.6 | 8.7 | 0.00 | 0.01 | 0.01 | 92 | 1009.3 |
| 20260506154532 | 61 | 234 | 3.5 | 10.4 | 0.00 | 0.01 | 0.01 | 92 | 1009.0 |
| 20260506153030 | 61 | 275 | 5.2 | 10.4 | 0.00 | 0.01 | 0.01 | 92 | 1009.6 |
| 20260506151529 | 61 | 203 | 5.2 | 11.3 | 0.00 | 0.01 | 0.01 | 91 | 1010.0 |
| 20260506150025 | 62 | 158 | 5.2 | 12.2 | 0.00 | 0.01 | 0.01 | 90 | 1010.0 |
| 20260506144523 | 62 | 213 | 5.2 | 10.4 | 0.01 | 0.01 | 0.01 | 90 | 1010.0 |
| 20260506143025 | 62 | 215 | 2.6 | 8.7 | 0.01 | 0.01 | 0.01 | 89 | 1009.8 |
| 20260506141521 | 62 | 219 | 4.3 | 9.6 | 0.01 | 0.01 | 0.01 | 88 | 1010.0 |
| 20260506140017 | 63 | 226 | 5.2 | 8.7 | 0.01 | 0.01 | 0.01 | 86 | 1010.3 |
| 20260506134515 | 64 | 162 | 4.3 | 11.3 | 0.00 | 0.00 | 0.00 | 84 | 1010.4 |
| 20260506133017 | 64 | 205 | 3.5 | 8.7 | 0.00 | 0.00 | 0.00 | 82 | 1010.2 |
| 20260506131514 | 65 | 171 | 5.2 | 13.9 | 0.00 | 0.00 | 0.00 | 81 | 1010.1 |
| 20260506130016 | 65 | 213 | 3.5 | 10.4 | 0.00 | 0.00 | 0.00 | 81 | 1009.7 |
| 20260506124511 | 65 | 179 | 2.6 | 10.4 | 0.00 | 0.00 | 0.00 | 80 | 1009.8 |
| 20260506123013 | 65 | 205 | 5.2 | 9.6 | 0.00 | 0.00 | 0.00 | 79 | 1010.2 |
| 20260506121508 | 65 | 229 | 4.3 | 8.7 | 0.00 | 0.00 | 0.00 | 78 | 1010.3 |
| 20260506120020 | 65 | 214 | 4.3 | 10.4 | 0.00 | 0.00 | 0.00 | 77 | 1010.2 |
| 20260506114506 | 65 | 169 | 2.6 | 10.4 | 0.00 | 0.00 | 0.00 | 78 | 1009.9 |
| 20260506113006 | 65 | 168 | 5.2 | 12.2 | 0.00 | 0.00 | 0.00 | 79 | 1009.8 |
| 20260506111504 | 64 | 230 | 3.5 | 8.7 | 0.00 | 0.00 | 0.00 | 81 | 1009.7 |
| 20260506110004 | 63 | 226 | 4.3 | 9.6 | 0.00 | 0.00 | 0.00 | 83 | 1009.6 |
| 20260506104501 | 63 | 190 | 2.6 | 6.1 | 0.00 | 0.00 | 0.00 | 83 | 1009.4 |
| 20260506103057 | 62 | 209 | 1.7 | 6.1 | 0.00 | 0.00 | 0.00 | 84 | 1009.4 |
| 20260506101554 | 62 | 198 | 3.5 | 9.6 | 0.00 | 0.00 | 0.00 | 84 | 1009.4 |
| 20260506094608 | 63 | 208 | 1.7 | 6.1 | 0.00 | 0.00 | 0.00 | 83 | 1009.5 |
| 20260506093050 | 63 | 137 | 2.6 | 5.2 | 0.00 | 0.00 | 0.00 | 82 | 1009.4 |
| 20260506091548 | 63 | 190 | 2.6 | 5.2 | 0.00 | 0.00 | 0.00 | 81 | 1009.4 |
| 20260506090045 | 64 | 158 | 3.5 | 6.1 | 0.00 | 0.00 | 0.00 | 81 | 1009.7 |
| 20260506084548 | 64 | 194 | 2.6 | 7.0 | 0.00 | 0.00 | 0.00 | 80 | 1009.7 |
| 20260506083046 | 64 | 220 | 2.6 | 7.8 | 0.00 | 0.00 | 0.00 | 80 | 1009.5 |
| 20260506081541 | 64 | 205 | 3.5 | 7.8 | 0.00 | 0.00 | 0.00 | 80 | 1009.4 |
| 20260506073036 | 65 | 212 | 2.6 | 5.2 | 0.00 | 0.00 | 0.00 | 78 | 1009.6 |
| 20260506071534 | 65 | 177 | 2.6 | 7.0 | 0.00 | 0.00 | 0.00 | 77 | 1009.7 |
| 20260506061528 | 66 | 180 | 1.7 | 5.2 | 0.00 | 0.00 | 0.00 | 73 | 1010.1 |